Time,TemperatureF,DewpointF,PressureIn,WindDirection,WindDirectionDegrees,WindSpeedMPH,WindSpeedGustMPH,Humidity,HourlyPrecipIn,Conditions,Clouds,dailyrainin,SoftwareType,DateUTC
2013-09-19 00:02:00,52.5,32.0,28.76,SW,224,0.0,0.0,26,0.00,,,-99.99,wx200d/1.3,2013-09-19 04:02:00,
2013-09-19 00:04:00,52.5,32.0,28.76,SW,224,0.0,0.0,26,0.00,,,-99.99,wx200d/1.3,2013-09-19 04:04:00,
2013-09-19 00:08:00,52.3,32.0,28.76,SW,224,0.0,0.0,26,0.00,,,-99.99,wx200d/1.3,2013-09-19 04:08:00,
2013-09-19 00:12:00,52.3,32.0,28.76,SW,224,0.0,0.0,26,0.00,,,-99.99,wx200d/1.3,2013-09-19 04:12:00,
2013-09-19 00:14:00,52.3,32.0,28.76,SW,224,0.0,0.0,26,0.00,,,-99.99,wx200d/1.3,2013-09-19 04:14:00,
2013-09-19 00:20:00,52.2,32.0,28.76,SW,224,0.0,0.0,26,0.00,,,-99.99,wx200d/1.3,2013-09-19 04:20:00,
2013-09-19 00:26:00,52.2,32.0,28.76,SW,224,0.0,0.0,26,0.00,,,-99.99,wx200d/1.3,2013-09-19 04:26:00,
2013-09-19 00:32:00,52.0,32.0,28.76,SW,224,0.0,0.0,26,0.00,,,-99.99,wx200d/1.3,2013-09-19 04:32:00,
2013-09-19 00:38:00,51.8,32.0,28.73,SW,224,0.0,0.0,26,0.00,,,-99.99,wx200d/1.3,2013-09-19 04:38:00,
2013-09-19 00:44:00,51.8,32.0,28.73,SW,224,0.0,0.0,26,0.00,,,-99.99,wx200d/1.3,2013-09-19 04:44:00,
2013-09-19 00:50:00,51.8,32.0,28.76,SW,224,0.0,0.0,26,0.00,,,-99.99,wx200d/1.3,2013-09-19 04:50:00,
2013-09-19 00:56:00,51.6,32.0,28.76,SW,224,0.0,0.0,27,0.00,,,-99.99,wx200d/1.3,2013-09-19 04:56:00,
2013-09-19 01:02:00,51.6,32.0,28.76,SW,224,0.0,0.0,27,0.00,,,-99.99,wx200d/1.3,2013-09-19 05:02:00,
2013-09-19 01:08:00,51.6,32.0,28.76,SW,224,0.0,0.0,27,0.00,,,-99.99,wx200d/1.3,2013-09-19 05:08:00,
2013-09-19 01:14:00,51.6,32.0,28.76,SW,224,0.0,0.0,27,0.00,,,-99.99,wx200d/1.3,2013-09-19 05:14:00,
2013-09-19 01:20:00,51.4,32.0,28.76,SW,224,0.0,0.0,27,0.00,,,-99.99,wx200d/1.3,2013-09-19 05:20:00,
2013-09-19 01:26:00,51.3,32.0,28.76,SW,224,0.0,0.0,27,0.00,,,-99.99,wx200d/1.3,2013-09-19 05:26:00,
2013-09-19 01:32:00,51.3,32.0,28.76,SW,224,0.0,0.0,27,0.00,,,-99.99,wx200d/1.3,2013-09-19 05:32:00,
2013-09-19 01:38:00,51.1,32.0,28.76,SW,224,0.0,0.0,27,0.00,,,-99.99,wx200d/1.3,2013-09-19 05:38:00,
2013-09-19 01:44:00,50.9,32.0,28.76,SW,224,0.0,0.0,27,0.00,,,-99.99,wx200d/1.3,2013-09-19 05:44:00,
2013-09-19 01:50:00,50.5,32.0,28.73,SW,224,0.0,0.0,27,0.00,,,-99.99,wx200d/1.3,2013-09-19 05:50:00,
2013-09-19 01:56:00,50.4,32.0,28.73,SW,224,0.0,0.0,27,0.00,,,-99.99,wx200d/1.3,2013-09-19 05:56:00,
2013-09-19 02:02:00,50.2,32.0,28.73,SW,224,0.0,0.0,27,0.00,,,-99.99,wx200d/1.3,2013-09-19 06:02:00,
2013-09-19 02:08:00,50.2,32.0,28.73,SW,224,0.0,0.0,27,0.00,,,-99.99,wx200d/1.3,2013-09-19 06:08:00,
2013-09-19 02:14:00,50.2,32.0,28.73,SW,224,0.0,0.0,28,0.00,,,-99.99,wx200d/1.3,2013-09-19 06:14:00,
2013-09-19 02:20:00,50.2,32.0,28.73,SW,224,0.0,0.0,28,0.00,,,-99.99,wx200d/1.3,2013-09-19 06:20:00,
2013-09-19 02:26:00,50.4,32.0,28.73,SW,224,0.0,0.0,28,0.00,,,-99.99,wx200d/1.3,2013-09-19 06:26:00,
2013-09-19 02:32:00,50.2,32.0,28.73,SW,224,0.0,0.0,28,0.00,,,-99.99,wx200d/1.3,2013-09-19 06:32:00,
2013-09-19 02:38:00,50.2,32.0,28.73,SW,224,0.0,0.0,27,0.00,,,-99.99,wx200d/1.3,2013-09-19 06:38:00,
2013-09-19 02:44:00,50.2,32.0,28.73,SW,224,0.0,0.0,27,0.00,,,-99.99,wx200d/1.3,2013-09-19 06:44:00,
2013-09-19 02:50:00,50.2,32.0,28.73,SW,224,0.0,0.0,27,0.00,,,-99.99,wx200d/1.3,2013-09-19 06:50:00,
2013-09-19 02:56:00,50.2,32.0,28.73,SW,224,0.0,0.0,27,0.00,,,-99.99,wx200d/1.3,2013-09-19 06:56:00,
2013-09-19 03:02:00,50.2,32.0,28.73,SW,224,0.0,0.0,27,0.00,,,-99.99,wx200d/1.3,2013-09-19 07:02:00,
2013-09-19 03:08:00,50.2,32.0,28.73,SW,224,0.0,0.0,27,0.00,,,-99.99,wx200d/1.3,2013-09-19 07:08:00,
2013-09-19 03:14:00,50.2,32.0,28.73,SW,224,0.0,0.0,27,0.00,,,-99.99,wx200d/1.3,2013-09-19 07:14:00,
2013-09-19 03:20:00,50.0,32.0,28.73,SW,224,0.0,0.0,27,0.00,,,-99.99,wx200d/1.3,2013-09-19 07:20:00,
2013-09-19 03:26:00,50.0,32.0,28.73,SW,224,0.0,0.0,27,0.00,,,-99.99,wx200d/1.3,2013-09-19 07:26:00,
2013-09-19 03:32:00,50.0,32.0,28.73,SW,224,0.0,0.0,27,0.00,,,-99.99,wx200d/1.3,2013-09-19 07:32:00,
2013-09-19 03:38:00,49.8,32.0,28.73,SW,224,0.0,0.0,28,0.00,,,-99.99,wx200d/1.3,2013-09-19 07:38:00,
2013-09-19 03:44:00,49.8,32.0,28.73,SW,224,0.0,0.0,28,0.00,,,-99.99,wx200d/1.3,2013-09-19 07:44:00,
2013-09-19 03:50:00,49.6,32.0,28.73,SW,224,0.0,0.0,28,0.00,,,-99.99,wx200d/1.3,2013-09-19 07:50:00,
2013-09-19 03:56:00,49.6,32.0,28.73,SW,224,0.0,0.0,27,0.00,,,-99.99,wx200d/1.3,2013-09-19 07:56:00,
2013-09-19 04:02:00,49.6,32.0,28.73,SW,224,0.0,0.0,27,0.00,,,-99.99,wx200d/1.3,2013-09-19 08:02:00,
2013-09-19 04:08:00,49.3,32.0,28.73,SW,224,0.0,0.0,28,0.00,,,-99.99,wx200d/1.3,2013-09-19 08:08:00,
2013-09-19 04:14:00,48.7,32.0,28.73,SW,224,0.0,0.0,28,0.00,,,-99.99,wx200d/1.3,2013-09-19 08:14:00,
2013-09-19 04:20:00,48.6,32.0,28.70,SW,224,0.0,0.0,29,0.00,,,-99.99,wx200d/1.3,2013-09-19 08:20:00,
2013-09-19 04:26:00,48.7,32.0,28.70,SW,224,0.0,0.0,29,0.00,,,-99.99,wx200d/1.3,2013-09-19 08:26:00,
2013-09-19 04:32:00,49.1,32.0,28.70,WNW,301,0.0,0.0,29,0.00,,,-99.99,wx200d/1.3,2013-09-19 08:32:00,
2013-09-19 04:38:00,49.6,32.0,28.73,WNW,301,0.0,0.0,28,0.00,,,-99.99,wx200d/1.3,2013-09-19 08:38:00,
2013-09-19 04:44:00,49.6,32.0,28.73,WNW,301,0.0,0.0,28,0.00,,,-99.99,wx200d/1.3,2013-09-19 08:44:00,
2013-09-19 04:50:00,49.5,32.0,28.73,North,353,0.0,0.0,28,0.00,,,-99.99,wx200d/1.3,2013-09-19 08:50:00,
2013-09-19 04:56:00,49.5,32.0,28.73,SW,230,0.0,0.0,28,0.00,,,-99.99,wx200d/1.3,2013-09-19 08:56:00,
2013-09-19 05:02:00,49.6,32.0,28.73,SW,230,0.0,0.0,28,0.00,,,-99.99,wx200d/1.3,2013-09-19 09:02:00,
2013-09-19 05:08:00,49.5,32.0,28.73,SW,230,0.0,0.0,27,0.00,,,-99.99,wx200d/1.3,2013-09-19 09:08:00,
2013-09-19 05:14:00,49.3,32.0,28.73,SW,230,0.0,0.0,27,0.00,,,-99.99,wx200d/1.3,2013-09-19 09:14:00,
2013-09-19 05:20:00,49.1,32.0,28.73,SW,230,0.0,0.0,27,0.00,,,-99.99,wx200d/1.3,2013-09-19 09:20:00,
2013-09-19 05:26:00,48.9,32.0,28.73,SW,230,0.0,0.0,27,0.00,,,-99.99,wx200d/1.3,2013-09-19 09:26:00,
2013-09-19 05:32:00,48.7,32.0,28.73,WNW,299,0.0,0.0,28,0.00,,,-99.99,wx200d/1.3,2013-09-19 09:32:00,
2013-09-19 05:38:00,48.9,32.0,28.70,North,353,0.0,0.0,28,0.00,,,-99.99,wx200d/1.3,2013-09-19 09:38:00,
2013-09-19 05:44:00,48.7,32.0,28.70,NNW,345,0.0,0.0,28,0.00,,,-99.99,wx200d/1.3,2013-09-19 09:44:00,
2013-09-19 05:50:00,48.7,32.0,28.73,NNW,345,0.0,0.0,28,0.00,,,-99.99,wx200d/1.3,2013-09-19 09:50:00,
2013-09-19 05:56:00,48.7,32.0,28.73,NNW,345,0.0,0.0,28,0.00,,,-99.99,wx200d/1.3,2013-09-19 09:56:00,
2013-09-19 06:02:00,48.6,32.0,28.73,NNW,331,0.0,0.0,28,0.00,,,-99.99,wx200d/1.3,2013-09-19 10:02:00,
2013-09-19 06:08:00,48.4,32.0,28.73,NNW,331,0.0,0.0,29,0.00,,,-99.99,wx200d/1.3,2013-09-19 10:08:00,
2013-09-19 06:14:00,48.0,32.0,28.73,NNW,331,0.0,0.0,31,0.00,,,-99.99,wx200d/1.3,2013-09-19 10:14:00,
2013-09-19 06:20:00,47.7,32.0,28.73,NNW,331,0.0,0.0,31,0.00,,,-99.99,wx200d/1.3,2013-09-19 10:20:00,
2013-09-19 06:26:00,47.7,32.0,28.73,NNW,331,0.0,0.0,32,0.00,,,-99.99,wx200d/1.3,2013-09-19 10:26:00,
2013-09-19 06:32:00,47.5,32.0,28.73,NNW,331,0.0,0.0,33,0.00,,,-99.99,wx200d/1.3,2013-09-19 10:32:00,
2013-09-19 06:38:00,47.5,32.0,28.73,NNW,331,0.0,0.0,34,0.00,,,-99.99,wx200d/1.3,2013-09-19 10:38:00,
2013-09-19 06:44:00,47.5,32.0,28.73,NNW,331,0.0,0.0,34,0.00,,,-99.99,wx200d/1.3,2013-09-19 10:44:00,
2013-09-19 06:50:00,47.5,32.0,28.73,NNW,331,0.0,0.0,34,0.00,,,-99.99,wx200d/1.3,2013-09-19 10:50:00,
2013-09-19 06:56:00,47.5,32.0,28.73,NNW,331,0.0,0.0,34,0.00,,,-99.99,wx200d/1.3,2013-09-19 10:56:00,
2013-09-19 07:02:00,47.5,32.0,28.73,NNW,331,0.0,0.0,34,0.00,,,-99.99,wx200d/1.3,2013-09-19 11:02:00,
2013-09-19 07:08:00,47.7,32.0,28.73,NNW,331,0.0,0.0,36,0.00,,,-99.99,wx200d/1.3,2013-09-19 11:08:00,
2013-09-19 07:14:00,47.7,32.0,28.73,NNW,331,0.0,0.0,36,0.00,,,-99.99,wx200d/1.3,2013-09-19 11:14:00,
2013-09-19 07:22:00,47.8,32.0,28.73,NNW,331,0.0,0.0,36,0.00,,,-99.99,wx200d/1.3,2013-09-19 11:22:00,
2013-09-19 07:28:00,47.8,32.0,28.73,NNW,331,0.0,0.0,36,0.00,,,-99.99,wx200d/1.3,2013-09-19 11:28:00,
2013-09-19 07:34:00,48.2,32.0,28.73,NNW,331,0.0,0.0,36,0.00,,,-99.99,wx200d/1.3,2013-09-19 11:34:00,
2013-09-19 07:40:00,48.4,32.0,28.73,NNW,331,0.0,0.0,36,0.00,,,-99.99,wx200d/1.3,2013-09-19 11:40:00,
2013-09-19 07:46:00,48.6,32.0,28.73,NNW,331,0.0,0.0,36,0.00,,,-99.99,wx200d/1.3,2013-09-19 11:46:00,
2013-09-19 07:52:00,48.7,32.0,28.73,NNW,331,0.0,0.0,35,0.00,,,-99.99,wx200d/1.3,2013-09-19 11:52:00,
2013-09-19 07:58:00,48.9,32.0,28.73,NNW,331,0.0,0.0,35,0.00,,,-99.99,wx200d/1.3,2013-09-19 11:58:00,
2013-09-19 08:04:00,49.1,32.0,28.73,NNW,331,0.0,0.0,35,0.00,,,-99.99,wx200d/1.3,2013-09-19 12:04:00,
2013-09-19 08:10:00,49.3,32.0,28.73,NNW,331,0.0,0.0,35,0.00,,,-99.99,wx200d/1.3,2013-09-19 12:10:00,
2013-09-19 08:16:00,49.5,32.0,28.73,NNW,331,0.0,0.0,34,0.00,,,-99.99,wx200d/1.3,2013-09-19 12:16:00,
2013-09-19 08:22:00,49.6,32.0,28.73,NNW,331,0.0,0.0,34,0.00,,,-99.99,wx200d/1.3,2013-09-19 12:22:00,
2013-09-19 08:28:00,50.0,32.0,28.73,NNW,331,0.0,0.0,34,0.00,,,-99.99,wx200d/1.3,2013-09-19 12:28:00,
2013-09-19 08:34:00,50.2,32.0,28.73,NNW,331,0.0,0.0,34,0.00,,,-99.99,wx200d/1.3,2013-09-19 12:34:00,
2013-09-19 08:40:00,50.5,32.0,28.73,NNW,331,0.0,0.0,34,0.00,,,-99.99,wx200d/1.3,2013-09-19 12:40:00,
2013-09-19 08:46:00,50.9,32.0,28.73,NNW,331,0.0,0.0,34,0.00,,,-99.99,wx200d/1.3,2013-09-19 12:46:00,
2013-09-19 08:52:00,51.4,32.0,28.73,NNW,331,0.0,0.0,35,0.00,,,-99.99,wx200d/1.3,2013-09-19 12:52:00,
2013-09-19 08:58:00,51.8,32.0,28.73,NNW,331,0.0,0.0,34,0.00,,,-99.99,wx200d/1.3,2013-09-19 12:58:00,
2013-09-19 09:04:00,52.2,32.0,28.73,NNW,331,0.0,0.0,35,0.00,,,-99.99,wx200d/1.3,2013-09-19 13:04:00,
2013-09-19 09:10:00,53.1,32.0,28.73,SSW,195,0.0,0.0,36,0.00,,,-99.99,wx200d/1.3,2013-09-19 13:10:00,
2013-09-19 09:16:00,54.0,32.0,28.73,South,188,0.0,0.0,35,0.00,,,-99.99,wx200d/1.3,2013-09-19 13:16:00,
2013-09-19 09:22:00,54.7,32.0,28.76,South,188,0.0,0.0,35,0.00,,,-99.99,wx200d/1.3,2013-09-19 13:22:00,
2013-09-19 09:28:00,55.8,32.0,28.76,West,261,0.0,0.0,34,0.00,,,-99.99,wx200d/1.3,2013-09-19 13:28:00,
2013-09-19 09:34:00,56.7,32.0,28.76,SW,233,0.0,0.0,30,0.00,,,-99.99,wx200d/1.3,2013-09-19 13:34:00,
2013-09-19 09:40:00,57.2,32.0,28.76,WSW,245,0.0,0.0,28,0.00,,,-99.99,wx200d/1.3,2013-09-19 13:40:00,
2013-09-19 09:46:00,58.3,32.0,28.76,SW,221,0.0,0.0,25,0.00,,,-99.99,wx200d/1.3,2013-09-19 13:46:00,
2013-09-19 09:52:00,59.0,32.0,28.73,SSW,209,0.0,0.0,24,0.00,,,-99.99,wx200d/1.3,2013-09-19 13:52:00,
2013-09-19 09:58:00,59.5,32.0,28.73,SSW,212,0.0,0.0,24,0.00,,,-99.99,wx200d/1.3,2013-09-19 13:58:00,
2013-09-19 10:04:00,60.1,32.0,28.73,North,2,0.0,0.0,19,0.00,,,-99.99,wx200d/1.3,2013-09-19 14:04:00,
2013-09-19 10:10:00,60.4,32.0,28.73,North,357,0.0,0.0,19,0.00,,,-99.99,wx200d/1.3,2013-09-19 14:10:00,
2013-09-19 10:16:00,60.6,32.0,28.73,East,90,0.0,0.0,19,0.00,,,-99.99,wx200d/1.3,2013-09-19 14:16:00,
2013-09-19 10:22:00,61.0,32.0,28.76,North,0,0.0,0.0,19,0.00,,,-99.99,wx200d/1.3,2013-09-19 14:22:00,
2013-09-19 10:28:00,61.5,32.0,28.76,North,353,0.0,0.0,19,0.00,,,-99.99,wx200d/1.3,2013-09-19 14:28:00,
2013-09-19 10:34:00,61.9,32.0,28.76,NNE,28,0.0,0.0,16,0.00,,,-99.99,wx200d/1.3,2013-09-19 14:34:00,
2013-09-19 10:40:00,63.0,32.0,28.73,NNW,334,0.0,0.0,16,0.00,,,-99.99,wx200d/1.3,2013-09-19 14:40:00,
2013-09-19 10:46:00,63.5,32.0,28.73,NNW,346,0.0,0.0,16,0.00,,,-99.99,wx200d/1.3,2013-09-19 14:46:00,
2013-09-19 10:52:00,64.0,32.0,28.73,NE,54,0.0,0.0,16,0.00,,,-99.99,wx200d/1.3,2013-09-19 14:52:00,
2013-09-19 10:58:00,64.2,32.0,28.73,North,350,0.0,0.0,16,0.00,,,-99.99,wx200d/1.3,2013-09-19 14:58:00,
2013-09-19 11:04:00,64.8,32.0,28.73,NNE,25,0.0,0.0,15,0.00,,,-99.99,wx200d/1.3,2013-09-19 15:04:00,
2013-09-19 11:10:00,65.5,32.0,28.73,North,0,0.0,0.0,15,0.00,,,-99.99,wx200d/1.3,2013-09-19 15:10:00,
2013-09-19 11:16:00,66.6,32.0,28.73,North,0,0.0,0.0,15,0.00,,,-99.99,wx200d/1.3,2013-09-19 15:16:00,
2013-09-19 11:22:00,67.3,32.0,28.73,NW,311,0.0,0.0,15,0.00,,,-99.99,wx200d/1.3,2013-09-19 15:22:00,
2013-09-19 11:28:00,68.2,32.0,28.73,NNW,332,0.0,0.0,15,0.00,,,-99.99,wx200d/1.3,2013-09-19 15:28:00,
2013-09-19 11:34:00,69.1,32.0,28.73,SW,227,0.0,0.0,15,0.00,,,-99.99,wx200d/1.3,2013-09-19 15:34:00,
2013-09-19 11:40:00,70.2,32.0,28.73,NW,316,2.2,0.0,14,0.00,,,-99.99,wx200d/1.3,2013-09-19 15:40:00,
2013-09-19 11:46:00,71.2,32.0,28.73,NW,324,0.0,0.0,14,0.00,,,-99.99,wx200d/1.3,2013-09-19 15:46:00,
2013-09-19 11:52:00,71.6,32.0,28.73,NW,312,0.0,0.0,14,0.00,,,-99.99,wx200d/1.3,2013-09-19 15:52:00,
2013-09-19 11:58:00,72.1,32.0,28.73,South,189,0.0,0.0,14,0.00,,,-99.99,wx200d/1.3,2013-09-19 15:58:00,
2013-09-19 12:04:00,72.3,32.0,28.73,South,185,2.2,0.0,14,0.00,,,-99.99,wx200d/1.3,2013-09-19 16:04:00,
2013-09-19 12:10:00,72.9,32.0,28.73,ENE,69,0.0,0.0,14,0.00,,,-99.99,wx200d/1.3,2013-09-19 16:10:00,
2013-09-19 12:16:00,73.4,32.0,28.73,WSW,241,3.1,0.0,13,0.00,,,-99.99,wx200d/1.3,2013-09-19 16:16:00,
2013-09-19 12:22:00,73.8,32.0,28.73,SW,236,0.0,0.0,13,0.00,,,-99.99,wx200d/1.3,2013-09-19 16:22:00,
2013-09-19 12:28:00,73.9,32.0,28.73,South,176,0.0,0.0,13,0.00,,,-99.99,wx200d/1.3,2013-09-19 16:28:00,
2013-09-19 12:34:00,74.1,32.0,28.73,South,173,0.0,0.0,13,0.00,,,-99.99,wx200d/1.3,2013-09-19 16:34:00,
2013-09-19 12:40:00,74.1,32.0,28.73,WNW,284,0.0,2.7,13,0.00,,,-99.99,wx200d/1.3,2013-09-19 16:40:00,
2013-09-19 12:46:00,74.1,32.0,28.73,ESE,117,0.0,0.0,13,0.00,,,-99.99,wx200d/1.3,2013-09-19 16:46:00,
2013-09-19 12:52:00,74.3,32.0,28.70,SSW,193,0.0,0.0,13,0.00,,,-99.99,wx200d/1.3,2013-09-19 16:52:00,
2013-09-19 12:58:00,74.7,32.0,28.70,SSW,209,0.0,3.1,13,0.00,,,-99.99,wx200d/1.3,2013-09-19 16:58:00,
2013-09-19 13:04:00,74.8,32.0,28.70,ENE,71,0.0,0.0,13,0.00,,,-99.99,wx200d/1.3,2013-09-19 17:04:00,
2013-09-19 13:10:00,75.0,32.0,28.73,WNW,294,0.0,2.2,13,0.00,,,-99.99,wx200d/1.3,2013-09-19 17:10:00,
2013-09-19 13:16:00,75.0,32.0,28.73,South,173,0.0,3.1,13,0.00,,,-99.99,wx200d/1.3,2013-09-19 17:16:00,
2013-09-19 13:22:00,75.0,32.0,28.70,South,178,0.0,2.7,13,0.00,,,-99.99,wx200d/1.3,2013-09-19 17:22:00,
2013-09-19 13:28:00,75.2,32.0,28.70,ENE,68,0.0,0.0,13,0.00,,,-99.99,wx200d/1.3,2013-09-19 17:28:00,
2013-09-19 13:34:00,75.2,32.0,28.70,North,0,0.0,0.0,13,0.00,,,-99.99,wx200d/1.3,2013-09-19 17:34:00,
2013-09-19 13:40:00,75.2,32.0,28.70,SSW,209,0.0,0.0,13,0.00,,,-99.99,wx200d/1.3,2013-09-19 17:40:00,
2013-09-19 13:46:00,75.0,32.0,28.70,NE,48,0.0,0.0,13,0.00,,,-99.99,wx200d/1.3,2013-09-19 17:46:00,
2013-09-19 13:52:00,75.0,32.0,28.70,South,181,0.0,0.0,13,0.00,,,-99.99,wx200d/1.3,2013-09-19 17:52:00,
2013-09-19 13:58:00,75.0,32.0,28.70,NW,326,2.2,0.0,13,0.00,,,-99.99,wx200d/1.3,2013-09-19 17:58:00,
2013-09-19 14:04:00,75.0,32.0,28.70,West,267,0.0,0.0,13,0.00,,,-99.99,wx200d/1.3,2013-09-19 18:04:00,
2013-09-19 14:10:00,75.2,32.0,28.70,SW,216,0.0,5.4,13,0.00,,,-99.99,wx200d/1.3,2013-09-19 18:10:00,
2013-09-19 14:16:00,75.2,32.0,28.70,North,4,0.0,0.0,13,0.00,,,-99.99,wx200d/1.3,2013-09-19 18:16:00,
2013-09-19 14:22:00,75.0,32.0,28.70,SSW,208,0.0,0.0,13,0.00,,,-99.99,wx200d/1.3,2013-09-19 18:22:00,
2013-09-19 14:28:00,74.8,32.0,28.70,WSW,255,4.0,4.0,13,0.00,,,-99.99,wx200d/1.3,2013-09-19 18:28:00,
2013-09-19 14:34:00,74.8,32.0,28.70,SSE,159,0.0,2.7,13,0.00,,,-99.99,wx200d/1.3,2013-09-19 18:34:00,
2013-09-19 14:40:00,74.5,32.0,28.70,South,175,0.0,0.0,13,0.00,,,-99.99,wx200d/1.3,2013-09-19 18:40:00,
2013-09-19 14:46:00,74.1,32.0,28.70,North,0,0.0,2.2,13,0.00,,,-99.99,wx200d/1.3,2013-09-19 18:46:00,
2013-09-19 14:52:00,73.9,32.0,28.70,SW,217,0.0,0.0,13,0.00,,,-99.99,wx200d/1.3,2013-09-19 18:52:00,
2013-09-19 14:58:00,73.8,32.0,28.70,WSW,249,0.0,0.0,13,0.00,,,-99.99,wx200d/1.3,2013-09-19 18:58:00,
2013-09-19 15:04:00,73.9,32.0,28.70,SSW,202,0.0,2.2,13,0.00,,,-99.99,wx200d/1.3,2013-09-19 19:04:00,
2013-09-19 15:10:00,73.9,32.0,28.70,West,276,2.2,0.0,13,0.00,,,-99.99,wx200d/1.3,2013-09-19 19:10:00,
2013-09-19 15:16:00,73.6,32.0,28.70,ESE,105,0.0,0.0,13,0.00,,,-99.99,wx200d/1.3,2013-09-19 19:16:00,
2013-09-19 15:22:00,73.4,32.0,28.67,South,170,0.0,0.0,13,0.00,,,-99.99,wx200d/1.3,2013-09-19 19:22:00,
2013-09-19 15:28:00,73.2,32.0,28.67,South,170,2.2,2.7,14,0.00,,,-99.99,wx200d/1.3,2013-09-19 19:28:00,
2013-09-19 15:34:00,73.4,32.0,28.67,SSW,211,0.0,0.0,13,0.00,,,-99.99,wx200d/1.3,2013-09-19 19:34:00,
2013-09-19 15:40:00,73.4,32.0,28.67,WSW,247,0.0,0.0,13,0.00,,,-99.99,wx200d/1.3,2013-09-19 19:40:00,
2013-09-19 15:46:00,73.2,32.0,28.67,SSW,200,0.0,2.7,14,0.00,,,-99.99,wx200d/1.3,2013-09-19 19:46:00,
2013-09-19 15:52:00,73.0,32.0,28.67,SSW,205,0.0,0.0,14,0.00,,,-99.99,wx200d/1.3,2013-09-19 19:52:00,
2013-09-19 15:58:00,72.9,32.0,28.67,SSE,164,0.0,3.6,14,0.00,,,-99.99,wx200d/1.3,2013-09-19 19:58:00,
2013-09-19 16:04:00,72.9,32.0,28.67,West,277,2.7,0.0,14,0.00,,,-99.99,wx200d/1.3,2013-09-19 20:04:00,
2013-09-19 16:10:00,72.7,32.0,28.67,South,185,0.0,3.6,14,0.00,,,-99.99,wx200d/1.3,2013-09-19 20:10:00,
2013-09-19 16:16:00,72.7,32.0,28.67,WNW,294,0.0,0.0,14,0.00,,,-99.99,wx200d/1.3,2013-09-19 20:16:00,
2013-09-19 16:22:00,72.7,32.0,28.67,South,185,0.0,2.7,14,0.00,,,-99.99,wx200d/1.3,2013-09-19 20:22:00,
2013-09-19 16:28:00,72.3,32.0,28.67,SSW,193,0.0,4.0,14,0.00,,,-99.99,wx200d/1.3,2013-09-19 20:28:00,
2013-09-19 16:34:00,72.1,32.0,28.67,SSE,156,0.0,0.0,14,0.00,,,-99.99,wx200d/1.3,2013-09-19 20:34:00,
2013-09-19 16:40:00,72.0,32.0,28.67,South,191,3.1,3.1,14,0.00,,,-99.99,wx200d/1.3,2013-09-19 20:40:00,
2013-09-19 16:46:00,71.8,32.0,28.67,WSW,241,0.0,3.6,14,0.00,,,-99.99,wx200d/1.3,2013-09-19 20:46:00,
2013-09-19 16:54:00,71.4,32.0,28.67,WSW,238,0.0,0.0,14,0.00,,,-99.99,wx200d/1.3,2013-09-19 20:54:00,
2013-09-19 17:00:00,71.2,32.0,28.67,SW,221,0.0,0.0,14,0.00,,,-99.99,wx200d/1.3,2013-09-19 21:00:00,
2013-09-19 17:06:00,71.1,32.0,28.67,South,182,0.0,0.0,14,0.00,,,-99.99,wx200d/1.3,2013-09-19 21:06:00,
2013-09-19 17:12:00,70.5,32.0,28.67,South,191,0.0,0.0,14,0.00,,,-99.99,wx200d/1.3,2013-09-19 21:12:00,
2013-09-19 17:18:00,70.5,32.0,28.67,SW,234,0.0,0.0,14,0.00,,,-99.99,wx200d/1.3,2013-09-19 21:18:00,
2013-09-19 17:24:00,70.5,32.0,28.67,NNE,31,0.0,0.0,14,0.00,,,-99.99,wx200d/1.3,2013-09-19 21:24:00,
2013-09-19 17:30:00,70.2,32.0,28.67,WSW,255,0.0,0.0,14,0.00,,,-99.99,wx200d/1.3,2013-09-19 21:30:00,
2013-09-19 17:36:00,69.8,32.0,28.67,WSW,244,0.0,0.0,14,0.00,,,-99.99,wx200d/1.3,2013-09-19 21:36:00,
2013-09-19 17:42:00,69.8,32.0,28.67,SW,228,0.0,0.0,14,0.00,,,-99.99,wx200d/1.3,2013-09-19 21:42:00,
2013-09-19 17:48:00,69.4,32.0,28.67,SW,236,0.0,0.0,15,0.00,,,-99.99,wx200d/1.3,2013-09-19 21:48:00,
2013-09-19 17:54:00,69.3,32.0,28.67,SW,234,0.0,0.0,15,0.00,,,-99.99,wx200d/1.3,2013-09-19 21:54:00,
2013-09-19 18:00:00,68.7,32.0,28.67,WSW,254,0.0,0.0,15,0.00,,,-99.99,wx200d/1.3,2013-09-19 22:00:00,
2013-09-19 18:06:00,67.6,32.0,28.67,WSW,239,0.0,0.0,15,0.00,,,-99.99,wx200d/1.3,2013-09-19 22:06:00,
2013-09-19 18:12:00,67.1,32.0,28.67,WSW,239,0.0,0.0,15,0.00,,,-99.99,wx200d/1.3,2013-09-19 22:12:00,
2013-09-19 18:18:00,66.4,32.0,28.67,WSW,239,0.0,0.0,15,0.00,,,-99.99,wx200d/1.3,2013-09-19 22:18:00,
2013-09-19 18:24:00,65.5,32.0,28.67,WSW,239,0.0,0.0,15,0.00,,,-99.99,wx200d/1.3,2013-09-19 22:24:00,
2013-09-19 18:30:00,64.8,32.0,28.67,WSW,239,0.0,0.0,15,0.00,,,-99.99,wx200d/1.3,2013-09-19 22:30:00,
2013-09-19 18:36:00,64.4,32.0,28.67,SW,229,0.0,0.0,15,0.00,,,-99.99,wx200d/1.3,2013-09-19 22:36:00,
2013-09-19 18:42:00,64.0,32.0,28.67,SW,229,0.0,0.0,16,0.00,,,-99.99,wx200d/1.3,2013-09-19 22:42:00,
2013-09-19 18:48:00,63.7,32.0,28.67,SW,229,0.0,0.0,16,0.00,,,-99.99,wx200d/1.3,2013-09-19 22:48:00,
2013-09-19 18:54:00,63.1,32.0,28.67,SW,229,0.0,0.0,16,0.00,,,-99.99,wx200d/1.3,2013-09-19 22:54:00,
2013-09-19 19:00:00,62.8,32.0,28.67,SW,229,0.0,0.0,16,0.00,,,-99.99,wx200d/1.3,2013-09-19 23:00:00,
2013-09-19 19:06:00,62.4,32.0,28.67,SW,229,0.0,0.0,16,0.00,,,-99.99,wx200d/1.3,2013-09-19 23:06:00,
2013-09-19 19:12:00,62.1,32.0,28.67,SW,229,0.0,0.0,16,0.00,,,-99.99,wx200d/1.3,2013-09-19 23:12:00,
2013-09-19 19:18:00,61.9,32.0,28.67,SW,229,0.0,0.0,16,0.00,,,-99.99,wx200d/1.3,2013-09-19 23:18:00,
2013-09-19 19:24:00,61.7,32.0,28.67,SW,229,0.0,0.0,16,0.00,,,-99.99,wx200d/1.3,2013-09-19 23:24:00,
2013-09-19 19:30:00,61.5,32.0,28.67,SW,229,0.0,0.0,16,0.00,,,-99.99,wx200d/1.3,2013-09-19 23:30:00,
2013-09-19 19:36:00,61.2,32.0,28.67,SW,229,0.0,0.0,16,0.00,,,-99.99,wx200d/1.3,2013-09-19 23:36:00,
2013-09-19 19:42:00,61.0,32.0,28.67,SW,229,0.0,0.0,16,0.00,,,-99.99,wx200d/1.3,2013-09-19 23:42:00,
2013-09-19 19:48:00,60.8,32.0,28.67,SW,229,0.0,0.0,16,0.00,,,-99.99,wx200d/1.3,2013-09-19 23:48:00,
2013-09-19 19:54:00,60.6,32.0,28.67,SW,229,0.0,0.0,17,0.00,,,-99.99,wx200d/1.3,2013-09-19 23:54:00,
2013-09-19 20:00:00,60.4,32.0,28.67,SW,229,0.0,0.0,17,0.00,,,-99.99,wx200d/1.3,2013-09-20 00:00:00,
2013-09-19 20:06:00,60.1,32.0,28.70,SW,229,0.0,0.0,17,0.00,,,-99.99,wx200d/1.3,2013-09-20 00:06:00,
2013-09-19 20:12:00,59.9,32.0,28.70,SW,229,0.0,0.0,17,0.00,,,-99.99,wx200d/1.3,2013-09-20 00:12:00,
2013-09-19 20:18:00,59.7,32.0,28.70,SW,229,0.0,0.0,17,0.00,,,-99.99,wx200d/1.3,2013-09-20 00:18:00,
2013-09-19 20:24:00,59.5,32.0,28.70,SW,229,0.0,0.0,17,0.00,,,-99.99,wx200d/1.3,2013-09-20 00:24:00,
2013-09-19 20:30:00,59.4,32.0,28.70,SW,229,0.0,0.0,19,0.00,,,-99.99,wx200d/1.3,2013-09-20 00:30:00,
2013-09-19 20:36:00,59.4,32.0,28.70,SW,229,0.0,0.0,19,0.00,,,-99.99,wx200d/1.3,2013-09-20 00:36:00,
2013-09-19 20:42:00,59.4,32.0,28.70,SW,229,0.0,0.0,19,0.00,,,-99.99,wx200d/1.3,2013-09-20 00:42:00,
2013-09-19 20:48:00,59.2,32.0,28.70,SW,229,0.0,0.0,19,0.00,,,-99.99,wx200d/1.3,2013-09-20 00:48:00,
2013-09-19 20:54:00,59.2,32.0,28.70,SW,229,0.0,0.0,19,0.00,,,-99.99,wx200d/1.3,2013-09-20 00:54:00,
2013-09-19 21:00:00,58.8,32.0,28.70,SW,229,0.0,0.0,19,0.00,,,-99.99,wx200d/1.3,2013-09-20 01:00:00,
2013-09-19 21:06:00,58.8,32.0,28.70,SW,229,0.0,0.0,19,0.00,,,-99.99,wx200d/1.3,2013-09-20 01:06:00,
2013-09-19 21:12:00,58.6,32.0,28.70,SW,229,0.0,0.0,19,0.00,,,-99.99,wx200d/1.3,2013-09-20 01:12:00,
2013-09-19 21:18:00,58.8,32.0,28.70,SW,229,0.0,0.0,19,0.00,,,-99.99,wx200d/1.3,2013-09-20 01:18:00,
2013-09-19 21:24:00,59.0,32.0,28.70,SW,229,0.0,0.0,19,0.00,,,-99.99,wx200d/1.3,2013-09-20 01:24:00,
2013-09-19 21:30:00,59.0,32.0,28.70,SW,229,0.0,0.0,19,0.00,,,-99.99,wx200d/1.3,2013-09-20 01:30:00,
2013-09-19 21:36:00,58.8,32.0,28.70,SW,229,0.0,0.0,19,0.00,,,-99.99,wx200d/1.3,2013-09-20 01:36:00,
2013-09-19 21:42:00,58.5,32.0,28.70,SW,229,0.0,0.0,19,0.00,,,-99.99,wx200d/1.3,2013-09-20 01:42:00,
2013-09-19 21:48:00,58.1,32.0,28.70,SW,229,0.0,0.0,19,0.00,,,-99.99,wx200d/1.3,2013-09-20 01:48:00,
2013-09-19 21:54:00,57.9,32.0,28.70,SW,229,0.0,0.0,19,0.00,,,-99.99,wx200d/1.3,2013-09-20 01:54:00,
2013-09-19 22:00:00,58.1,32.0,28.70,SW,229,0.0,0.0,19,0.00,,,-99.99,wx200d/1.3,2013-09-20 02:00:00,
2013-09-19 22:06:00,58.1,32.0,28.70,SW,229,0.0,0.0,19,0.00,,,-99.99,wx200d/1.3,2013-09-20 02:06:00,
2013-09-19 22:12:00,58.1,32.0,28.70,SW,229,0.0,0.0,19,0.00,,,-99.99,wx200d/1.3,2013-09-20 02:12:00,
2013-09-19 22:18:00,58.1,32.0,28.70,SW,229,0.0,0.0,22,0.00,,,-99.99,wx200d/1.3,2013-09-20 02:18:00,
2013-09-19 22:24:00,58.3,32.0,28.70,SW,229,0.0,0.0,22,0.00,,,-99.99,wx200d/1.3,2013-09-20 02:24:00,
2013-09-19 22:30:00,58.5,32.0,28.70,SW,229,0.0,0.0,22,0.00,,,-99.99,wx200d/1.3,2013-09-20 02:30:00,
2013-09-19 22:36:00,58.3,32.0,28.70,SW,229,0.0,0.0,22,0.00,,,-99.99,wx200d/1.3,2013-09-20 02:36:00,
2013-09-19 22:42:00,57.9,32.0,28.70,SW,229,0.0,0.0,22,0.00,,,-99.99,wx200d/1.3,2013-09-20 02:42:00,
2013-09-19 22:48:00,57.6,32.0,28.70,SW,229,0.0,0.0,22,0.00,,,-99.99,wx200d/1.3,2013-09-20 02:48:00,
2013-09-19 22:54:00,57.2,32.0,28.70,SW,229,0.0,0.0,25,0.00,,,-99.99,wx200d/1.3,2013-09-20 02:54:00,
2013-09-19 23:00:00,57.0,32.0,28.70,SW,229,0.0,0.0,26,0.00,,,-99.99,wx200d/1.3,2013-09-20 03:00:00,
2013-09-19 23:06:00,56.8,32.0,28.70,SW,229,0.0,0.0,27,0.00,,,-99.99,wx200d/1.3,2013-09-20 03:06:00,
2013-09-19 23:12:00,56.8,32.0,28.70,SW,229,0.0,0.0,27,0.00,,,-99.99,wx200d/1.3,2013-09-20 03:12:00,
2013-09-19 23:18:00,56.7,32.0,28.70,SW,229,0.0,0.0,27,0.00,,,-99.99,wx200d/1.3,2013-09-20 03:18:00,
2013-09-19 23:24:00,56.7,32.0,28.67,SW,229,0.0,0.0,28,0.00,,,-99.99,wx200d/1.3,2013-09-20 03:24:00,
2013-09-19 23:30:00,56.5,32.0,28.67,SW,229,0.0,0.0,28,0.00,,,-99.99,wx200d/1.3,2013-09-20 03:30:00,
2013-09-19 23:36:00,56.3,32.0,28.67,SW,229,0.0,0.0,28,0.00,,,-99.99,wx200d/1.3,2013-09-20 03:36:00,
2013-09-19 23:42:00,56.1,32.0,28.67,SW,229,0.0,0.0,29,0.00,,,-99.99,wx200d/1.3,2013-09-20 03:42:00,
2013-09-19 23:48:00,56.1,32.0,28.67,SW,229,0.0,0.0,30,0.00,,,-99.99,wx200d/1.3,2013-09-20 03:48:00,
2013-09-19 23:54:00,55.9,32.0,28.67,SW,228,0.0,0.0,30,0.00,,,-99.99,wx200d/1.3,2013-09-20 03:54:00,